Temperature
14 14 15 15 16 16 15 15 15 14 14 13 13 13 13 13 12 12 12 13 12 12 12 12 12 12 12 12 12 12 12 11 11 11 11 11 11 11 11 11 10 10 10
15 14 14 14 14 14 14 14 14 13 13 13 13 13 13 12 12 12 12 12 12 12 12 12 12 12 12 12 12 12 11 11 11 11 11 11 11 11 10 10 10 10 9
15 15 14 14 14 14 13 13 13 13 13 13 13 13 13 12 12 12 12 12 12 12 12 12 12 11 11 11 11 11 11 11 11 11 10 10 10 10 10 10 9 9 9
15 15 14 14 14 13 13 13 13 12 12 12 13 13 12 12 12 12 12 12 12 12 12 12 11 11 11 11 11 11 11 10 10 10 10 10 10 10 9 9 9 8 8
15 14 14 14 14 13 13 13 13 12 12 12 12 12 12 12 12 12 11 11 12 12 12 12 11 11 11 10 10 10 10 10 10 10 9 9 9 9 9 9 8 7 7
15 14 14 14 14 13 13 13 12 12 12 12 12 12 12 12 12 12 11 11 11 11 12 12 11 11 11 10 10 10 10 9 9 9 9 9 9 9 8 8 7 7 6
15 14 14 14 13 13 13 13 12 12 12 11 11 11 11 11 11 11 11 11 11 11 11 11 11 11 11 10 10 9 9 9 8 8 8 8 8 8 7 7 6 6 5
15 14 14 13 13 13 13 12 12 12 12 11 11 11 10 10 11 11 11 11 11 11 11 11 11 11 10 10 10 9 9 8 8 8 7 7 7 7 7 6 6 5 5
15 14 14 13 13 12 12 12 12 12 12 11 11 11 11 11 11 11 11 11 11 10 10 10 10 10 10 9 9 9 8 8 7 7 7 6 6 6 5 5 5 4 4
14 14 13 13 13 12 12 12 12 12 11 11 11 11 11 11 11 11 11 10 10 9 9 9 9 8 8 8 9 8 8 7 6 6 6 5 5 5 4 4 4 3 3
13 13 13 12 12 12 12 12 12 12 11 11 11 11 10 10 10 11 10 10 10 9 8 8 8 7 7 7 7 7 6 6 5 5 5 4 4 3 3 3 3 3 3
12 12 12 12 12 12 11 11 11 11 11 11 11 11 10 10 10 10 10 10 10 9 8 7 7 7 6 6 6 5 5 4 4 4 4 4 3 3 2 2 2 2 2
12 12 12 12 12 11 11 11 11 11 11 11 11 10 10 10 10 10 9 9 8 8 7 7 6 6 5 5 4 4 4 3 3 3 3 3 3 2 2 2 2 1 1
11 11 11 11 11 11 11 11 10 10 10 10 10 10 10 9 9 9 9 8 7 7 6 6 5 5 5 4 4 3 3 2 2 2 2 2 2 2 2 2 1 1 1
10 10 10 10 10 10 10 10 10 10 10 10 9 9 9 9 9 8 8 8 7 6 5 5 5 4 4 4 3 2 2 2 1 1 1 1 1 1 1 1 1 1 0
9 9 9 10 10 10 10 9 9 9 9 9 9 8 8 8 8 8 7 7 6 5 5 4 4 4 3 3 2 2 1 1 1 1 0 0 0 0 -0 0 -0 -0 -1
8 8 8 9 9 9 8 8 8 8 8 8 8 7 7 7 7 6 6 5 5 4 4 3 3 3 2 2 1 0 0 0 0 0 -0 -1 -1 -1 -1 -1 -1 -1 -2
7 7 7 8 8 7 7 7 7 7 7 7 6 6 6 5 5 5 4 4 3 3 3 2 2 1 1 0 -0 -1 -1 -1 -1 -1 -1 -2 -2 -2 -2 -2 -2 -2 -3
6 6 6 6 6 6 6 6 6 6 5 5 5 4 4 4 4 3 3 2 2 2 1 1 1 0 -0 -1 -1 -1 -2 -2 -2 -2 -2 -2 -3 -3 -3 -3 -3 -3 -3
5 5 5 5 5 5 4 4 4 4 4 3 3 3 2 2 2 1 1 1 0 0 0 -0 -1 -1 -2 -3 -3 -3 -3 -3 -3 -3 -3 -3 -3 -3 -3 -3 -3 -3 -3
4 3 3 3 3 3 3 3 3 3 2 2 2 1 1 1 0 -0 -0 -1 -1 -1 -1 -2 -2 -3 -3 -4 -4 -4 -4 -4 -3 -3 -3 -3 -4 -3 -3 -3 -3 -3 -4
2 2 2 2 2 2 1 1 1 1 1 1 0 -0 -0 -1 -1 -1 -1 -2 -2 -2 -3 -3 -4 -4 -5 -5 -5 -5 -5 -5 -4 -4 -5 -4 -4 -3 -3 -3 -3 -4 -4
1 1 1 1 1 0 0 0 -0 -0 -0 -1 -1 -1 -1 -2 -2 -2 -3 -3 -3 -4 -4 -4 -5 -5 -5 -6 -6 -6 -6 -6 -5 -5 -6 -4 -3 -3 -3 -3 -3 -4 -4
0 0 -0 -0 -0 -1 -1 -1 -1 -1 -1 -2 -2 -2 -3 -3 -3 -3 -4 -4 -4 -4 -5 -5 -5 -5 -6 -6 -6 -6 -6 -6 -5 -5 -6 -5 -4 -4 -3 -3 -3 -3 -4
-0 -0 -1 -1 -1 -1 -1 -2 -2 -2 -3 -3 -3 -3 -3 -4 -4 -5 -5 -5 -5 -6 -6 -6 -6 -6 -6 -6 -7 -7 -7 -7 -6 -5 -5 -6 -5 -5 -3 -2 -3 -3 -4
-1 -1 -1 -2 -2 -2 -2 -3 -3 -3 -3 -4 -4 -4 -5 -5 -5 -5 -6 -6 -6 -6 -6 -6 -6 -6 -6 -6 -7 -7 -7 -7 -7 -7 -6 -7 -6 -6 -6 -3 -3 -3 -4
Wind_Speed
5 7 8 12 13 14 12 11 11 10 9 9 9 8 8 8 7 12 14 16 15 13 12 11 10 9 9 8 8 8 7 7 7 8 8 8 8 8 8 9 9 10 10
8 6 6 7 10 12 12 11 9 7 6 6 6 6 6 9 9 13 16 16 16 15 13 12 11 10 9 9 8 8 7 6 6 6 6 6 6 6 6 7 8 8 9
11 8 4 5 8 11 11 10 9 7 5 5 5 6 6 6 7 11 16 17 17 17 16 14 13 11 10 9 9 8 7 6 5 4 4 4 4 4 5 5 6 7 8
14 9 5 5 10 11 9 5 5 5 5 5 5 4 4 4 5 8 14 17 18 16 16 16 15 13 12 11 10 9 7 6 4 3 2 2 2 3 4 5 6 7 8
16 11 6 7 11 7 5 6 6 5 5 5 5 5 5 5 5 6 8 15 18 19 18 17 16 15 14 13 11 10 8 7 5 3 1 0 2 3 4 5 6 7 8
14 12 7 8 9 6 6 6 6 6 5 6 5 5 5 5 5 5 6 10 15 19 20 19 18 16 16 15 13 11 9 7 5 4 2 2 3 4 5 6 8 9 10
12 10 6 7 7 8 8 8 6 7 6 5 3 2 3 4 6 6 6 6 9 16 19 20 20 18 17 17 15 13 10 8 6 5 4 3 4 5 7 8 9 10 11
10 8 7 8 8 8 9 10 8 6 6 6 5 3 3 4 6 8 6 7 7 11 13 18 20 19 18 17 16 14 12 10 8 6 5 5 5 6 8 9 11 12 13
11 10 8 7 8 9 9 10 10 10 8 7 6 5 5 7 5 5 8 8 7 7 7 12 16 18 19 18 18 16 13 11 9 7 6 6 6 8 9 11 12 13 14
10 12 10 9 9 8 9 10 11 9 9 8 7 7 5 4 4 3 3 4 5 5 6 6 10 14 16 17 18 17 14 12 10 8 7 7 8 10 12 13 14 15 15
6 8 9 8 10 9 9 10 10 11 10 10 8 5 7 5 3 4 4 3 3 3 3 3 5 9 12 14 15 16 14 12 10 8 7 8 10 12 14 15 15 15 16
3 5 5 7 8 9 10 10 10 11 11 11 10 8 6 5 6 5 4 3 3 1 1 1 2 5 8 11 12 13 12 10 9 8 8 10 12 13 15 16 16 17 17
3 4 4 4 5 7 8 8 9 10 11 11 11 9 8 7 4 4 5 3 3 1 0 1 1 3 5 7 9 11 10 9 9 9 10 12 14 15 15 16 17 18 18
4 5 4 3 4 4 4 5 6 7 7 8 9 8 6 5 4 4 4 5 4 2 2 2 0 1 4 7 9 10 8 10 10 10 12 14 15 16 17 17 18 19 19
5 6 5 4 4 3 3 3 3 3 3 3 4 4 3 2 2 2 3 4 6 6 6 5 3 2 4 6 8 8 7 9 11 12 14 15 16 17 18 18 19 19 20
7 6 6 6 5 5 4 3 2 2 2 2 2 3 4 4 4 3 3 2 2 3 3 3 3 2 5 7 9 8 8 10 12 13 15 16 17 18 18 19 19 20 20
8 8 7 7 7 7 6 5 5 5 6 6 6 7 7 6 5 4 4 4 3 2 3 2 2 2 4 4 5 7 8 9 10 14 16 17 18 18 19 20 20 21 21
9 9 9 9 10 9 9 8 8 8 7 7 8 8 7 6 7 5 5 5 4 4 3 3 2 2 3 4 4 4 7 8 10 13 16 17 18 18 19 20 20 20 21
10 11 11 11 11 10 10 10 10 10 10 9 9 8 7 8 7 6 6 5 4 4 3 3 2 1 1 2 3 4 5 6 10 12 14 16 17 17 18 19 19 20 21
11 11 11 11 11 11 11 10 11 11 11 11 10 9 8 8 7 6 5 4 4 3 3 3 1 1 1 2 2 2 3 3 4 8 13 15 15 16 17 19 20 21 21
11 10 11 11 10 10 10 11 10 11 11 11 10 9 8 9 9 6 4 3 3 2 2 1 1 0 1 1 1 1 2 3 4 4 4 6 9 11 15 19 20 21 21
10 11 11 11 11 10 15 16 12 9 9 8 8 7 7 8 8 8 7 5 3 2 1 0 0 1 2 2 1 1 1 3 4 3 4 7 7 8 11 15 19 21 21
9 10 9 10 10 12 16 15 14 8 8 7 6 5 5 6 6 4 4 4 3 3 2 1 1 2 2 1 1 2 3 4 6 5 6 9 6 8 10 16 20 21 22
7 7 8 8 8 10 14 13 12 8 7 6 5 5 4 4 4 4 4 3 3 3 3 1 2 3 3 2 3 3 5 5 6 5 5 6 6 6 8 12 20 22 21
7 6 6 7 7 8 11 11 9 4 4 4 4 4 4 4 6 6 4 4 4 4 5 5 6 8 11 11 9 4 3 4 6 5 3 3 4 5 6 8 13 15 16
5 5 5 5 6 5 9 10 9 4 4 3 2 2 4 5 7 7 4 3 4 4 4 6 7 8 8 9 10 4 4 4 4 4 2 2 3 4 6 4 4 8 13
Wind_Direction
176 182 185 181 190 192 193 190 204 206 201 200 200 202 186 197 183 146 155 159 162 163 163 160 157 152 145 136 126 117 108 99 91 84 77 69 62 55 50 45 40 34 29
193 190 192 190 196 196 191 194 205 201 192 191 195 204 203 197 188 156 159 166 169 171 173 173 171 167 161 153 145 136 125 114 102 90 79 69 60 50 43 37 31 25 20
203 198 195 193 198 203 199 197 209 205 188 182 191 200 207 208 193 166 163 168 172 177 181 183 181 179 175 169 162 154 144 133 121 105 88 71 55 40 28 20 15 10 5
208 204 198 205 203 202 200 193 203 199 192 182 187 200 198 198 203 186 171 171 173 180 186 189 188 186 184 181 176 169 161 154 145 131 106 69 37 12 1 355 351 347 345
210 206 203 207 208 203 198 198 198 193 192 191 196 200 198 191 203 207 183 175 176 180 184 191 190 189 189 188 186 182 176 171 168 170 174 287 331 332 331 330 329 327 327
215 211 207 209 208 204 206 203 200 198 194 189 197 201 202 197 195 202 201 186 179 179 182 184 185 188 191 192 192 190 186 185 187 196 218 255 287 306 312 314 315 316 316
220 214 209 209 209 212 210 205 202 204 206 180 168 211 251 226 213 208 203 194 186 183 180 181 183 184 189 194 194 193 192 194 198 208 229 254 278 294 303 306 308 308 309
240 226 218 216 213 215 213 210 208 204 202 183 167 158 223 251 249 224 207 206 197 186 185 184 184 183 185 188 191 192 193 196 202 214 231 252 273 288 297 302 303 305 305
234 236 230 225 222 217 220 216 212 209 212 204 190 178 186 216 220 227 218 209 201 193 191 188 186 183 181 180 183 189 191 196 205 218 235 254 273 287 293 296 299 300 301
222 225 229 228 229 227 224 221 217 215 210 213 217 223 218 183 179 208 247 220 202 196 191 188 183 179 176 171 176 181 187 194 206 220 238 260 276 286 292 295 297 298 300
229 225 224 224 229 231 231 228 224 220 217 216 209 211 232 245 218 178 209 221 214 205 178 172 170 169 169 164 167 175 184 198 211 225 246 268 282 291 295 297 297 299 299
265 246 238 231 231 230 231 232 231 228 226 223 218 207 199 208 214 207 201 188 202 213 84 80 134 154 160 160 168 176 186 203 218 237 260 277 286 292 296 298 298 298 296
300 284 266 256 252 243 237 234 234 235 231 227 225 222 215 216 198 200 205 174 162 151 43 24 69 121 144 148 164 174 191 209 229 249 269 280 289 295 296 296 295 295 295
315 321 307 293 283 276 266 251 246 244 240 233 230 222 217 213 197 187 182 165 166 184 211 223 13 163 151 154 173 182 200 222 240 258 272 282 289 292 292 292 292 293 293
344 351 350 349 346 341 330 302 273 267 259 249 231 206 193 163 147 148 144 167 177 192 209 193 183 179 165 162 185 190 208 234 251 265 274 281 284 286 288 289 290 291 290
9 8 10 13 15 18 19 20 11 16 64 53 61 90 92 91 92 92 110 112 151 176 177 161 167 159 175 184 199 205 223 247 263 273 278 281 282 284 286 287 289 289 288
23 24 25 29 32 32 33 46 53 59 72 72 72 83 83 85 88 79 80 87 80 102 141 122 127 147 172 182 203 219 237 253 266 274 279 281 283 285 287 288 287 287 286
34 36 40 45 44 42 42 50 59 65 73 79 80 86 87 88 84 79 80 78 75 61 105 127 127 151 183 191 202 225 247 259 264 274 280 283 285 286 287 287 286 285 284
44 44 48 51 51 51 52 56 63 65 68 70 72 79 82 88 84 80 80 81 76 69 77 113 120 152 182 204 214 239 252 261 269 277 285 289 290 290 288 288 287 286 285
51 51 53 55 56 58 59 61 67 70 70 67 66 68 70 76 82 81 80 81 83 80 82 93 106 142 204 220 206 241 270 269 278 289 290 290 291 292 292 292 292 291 288
58 57 58 58 58 62 65 69 69 73 73 71 67 65 68 74 76 75 81 76 74 73 75 89 115 217 247 251 246 245 270 298 297 280 282 289 296 292 290 290 291 289 287
62 63 62 62 62 67 75 77 80 74 75 74 71 67 69 63 61 62 66 62 55 52 50 34 293 262 271 275 285 316 313 319 304 306 326 297 287 281 280 279 285 289 290
66 68 67 66 66 67 71 73 75 75 72 68 63 56 55 59 55 35 25 25 10 351 330 272 266 276 286 280 300 304 282 271 267 275 295 288 273 275 276 283 292 295 296
68 69 70 71 70 65 66 66 69 70 71 67 60 51 44 39 40 24 8 0 335 318 301 288 247 272 281 268 244 251 258 273 273 270 264 276 282 277 286 286 291 293 294
73 70 69 70 72 63 60 57 54 58 69 66 65 58 43 24 13 9 9 349 336 324 322 314 298 292 290 287 279 266 274 290 295 293 255 257 289 302 290 283 285 292 296
85 82 74 71 74 64 55 49 44 45 43 33 30 48 50 21 359 356 2 347 330 325 339 331 315 306 298 290 289 254 217 242 274 293 288 304 298 328 309 284 276 287 293
Height
1549 1550 1550 1551 1552 1553 1554 1555 1556 1557 1558 1559 1560 1561 1562 1562 1563 1562 1562 1562 1562 1562 1562 1562 1562 1562 1562 1561 1561 1561 1561 1561 1561 1560 1560 1560 1560 1560 1559 1559 1558 1558 1558
1547 1548 1548 1549 1550 1551 1552 1553 1554 1555 1556 1557 1557 1558 1559 1560 1560 1559 1559 1559 1560 1560 1560 1560 1560 1560 1560 1559 1560 1559 1559 1560 1559 1559 1559 1559 1559 1558 1558 1557 1557 1557 1556
1544 1545 1546 1547 1547 1549 1550 1550 1551 1552 1553 1553 1554 1555 1556 1557 1557 1556 1555 1556 1556 1557 1557 1557 1557 1557 1557 1557 1557 1557 1557 1558 1558 1558 1557 1557 1557 1557 1556 1556 1555 1555 1555
1541 1541 1542 1543 1544 1545 1546 1547 1548 1549 1549 1550 1550 1551 1552 1552 1553 1553 1552 1551 1552 1553 1553 1554 1554 1554 1554 1555 1555 1555 1555 1555 1555 1555 1555 1555 1555 1555 1554 1554 1553 1553 1552
1537 1538 1538 1539 1540 1541 1542 1543 1543 1544 1545 1545 1546 1547 1547 1547 1548 1549 1549 1548 1547 1548 1549 1550 1550 1551 1551 1551 1551 1552 1552 1552 1552 1552 1552 1552 1552 1552 1552 1551 1551 1550 1550
1533 1533 1534 1535 1536 1536 1537 1538 1538 1539 1540 1541 1542 1542 1542 1542 1543 1544 1544 1544 1543 1543 1543 1545 1545 1546 1547 1547 1547 1548 1548 1548 1549 1549 1549 1549 1548 1548 1548 1548 1547 1547 1547
1528 1528 1529 1530 1530 1531 1531 1533 1534 1534 1535 1537 1538 1537 1537 1537 1537 1537 1538 1538 1538 1538 1538 1539 1540 1541 1542 1542 1543 1543 1544 1544 1545 1545 1545 1545 1544 1544 1544 1544 1544 1543 1543
1523 1523 1523 1524 1525 1525 1526 1527 1528 1528 1529 1530 1531 1531 1531 1531 1529 1530 1530 1531 1532 1532 1532 1533 1533 1534 1536 1536 1537 1538 1539 1539 1540 1540 1540 1540 1540 1540 1539 1539 1539 1539 1538
1517 1517 1518 1518 1519 1520 1520 1521 1522 1522 1522 1523 1524 1524 1523 1521 1522 1523 1523 1524 1525 1525 1526 1527 1527 1528 1529 1530 1531 1532 1534 1534 1535 1535 1535 1535 1535 1534 1534 1534 1534 1533 1533
1510 1511 1511 1512 1512 1513 1513 1514 1515 1515 1516 1516 1516 1516 1517 1517 1517 1515 1515 1516 1517 1518 1519 1520 1521 1521 1522 1522 1524 1526 1527 1528 1529 1529 1530 1529 1529 1529 1529 1528 1528 1527 1526
1505 1505 1505 1505 1505 1506 1506 1507 1508 1508 1508 1508 1508 1508 1509 1510 1510 1509 1508 1509 1510 1510 1512 1513 1514 1515 1516 1516 1517 1518 1520 1522 1523 1523 1523 1523 1523 1523 1522 1522 1521 1520 1519
1499 1499 1499 1499 1499 1499 1499 1500 1500 1500 1500 1501 1501 1501 1501 1502 1502 1502 1501 1500 1502 1503 1504 1505 1506 1507 1508 1510 1510 1511 1513 1515 1516 1517 1517 1516 1516 1516 1515 1514 1514 1513 1512
1493 1493 1493 1493 1493 1493 1493 1493 1493 1493 1493 1493 1493 1493 1493 1494 1495 1496 1496 1494 1494 1495 1496 1497 1497 1499 1500 1502 1503 1504 1506 1508 1509 1510 1510 1510 1509 1508 1507 1506 1505 1505 1504
1487 1487 1487 1486 1486 1486 1486 1486 1485 1486 1486 1486 1486 1486 1486 1486 1487 1488 1489 1489 1488 1487 1488 1490 1491 1492 1493 1495 1497 1498 1500 1501 1502 1502 1502 1502 1502 1501 1500 1499 1497 1496 1496
1482 1481 1481 1481 1480 1480 1479 1479 1479 1479 1479 1479 1479 1479 1479 1479 1480 1480 1481 1482 1483 1481 1481 1483 1485 1486 1488 1489 1490 1492 1493 1494 1495 1495 1495 1495 1494 1493 1492 1491 1490 1489 1487
1476 1476 1475 1475 1474 1474 1474 1473 1473 1472 1472 1472 1472 1473 1473 1473 1474 1474 1474 1475 1476 1477 1476 1476 1479 1481 1482 1484 1485 1486 1487 1488 1488 1488 1488 1487 1487 1486 1485 1483 1482 1481 1480
1472 1471 1471 1470 1469 1469 1468 1467 1467 1467 1467 1467 1467 1468 1468 1468 1468 1468 1469 1469 1470 1471 1472 1473 1474 1476 1478 1478 1479 1481 1482 1482 1482 1482 1482 1481 1480 1479 1477 1476 1475 1474 1473
1469 1468 1467 1466 1465 1464 1464 1463 1463 1463 1463 1463 1463 1463 1463 1464 1464 1465 1465 1466 1467 1468 1469 1470 1470 1472 1474 1474 1475 1476 1477 1477 1477 1476 1475 1474 1473 1472 1471 1470 1468 1467 1466
1466 1465 1464 1463 1462 1462 1461 1460 1460 1460 1459 1460 1460 1461 1461 1461 1461 1462 1463 1464 1464 1465 1466 1467 1468 1470 1471 1471 1471 1472 1472 1471 1471 1470 1469 1468 1467 1466 1465 1464 1462 1461 1459
1465 1464 1463 1462 1461 1460 1460 1459 1459 1459 1458 1458 1459 1459 1460 1460 1460 1461 1462 1462 1463 1463 1464 1465 1466 1466 1467 1468 1467 1467 1467 1467 1466 1465 1464 1463 1461 1460 1459 1458 1456 1454 1453
1464 1464 1463 1462 1461 1460 1459 1459 1459 1459 1459 1459 1459 1459 1459 1460 1460 1461 1461 1461 1462 1462 1462 1462 1463 1463 1464 1464 1464 1463 1463 1462 1461 1460 1458 1457 1456 1455 1453 1452 1450 1448 1446
1465 1465 1464 1463 1462 1461 1461 1461 1460 1460 1460 1460 1460 1460 1460 1460 1460 1460 1461 1461 1461 1461 1460 1460 1460 1461 1461 1461 1461 1460 1459 1458 1456 1456 1454 1452 1451 1448 1447 1445 1443 1441 1439
1467 1466 1466 1465 1464 1463 1463 1462 1462 1462 1461 1461 1461 1461 1460 1460 1460 1460 1459 1459 1459 1458 1459 1459 1458 1458 1458 1458 1457 1457 1456 1454 1452 1451 1449 1445 1445 1442 1441 1439 1437 1435 1433
1469 1468 1468 1467 1466 1465 1465 1464 1464 1463 1462 1462 1462 1461 1461 1460 1459 1459 1458 1457 1457 1457 1456 1456 1456 1455 1455 1454 1454 1453 1452 1450 1448 1447 1445 1440 1438 1436 1434 1433 1431 1429 1427
1471 1470 1469 1469 1468 1467 1466 1466 1465 1464 1463 1462 1462 1461 1460 1459 1458 1458 1457 1456 1455 1455 1454 1454 1453 1453 1452 1452 1451 1450 1448 1446 1443 1441 1440 1437 1433 1430 1427 1425 1424 1422 1420
1472 1472 1471 1470 1469 1468 1467 1466 1465 1464 1463 1462 1461 1460 1459 1459 1458 1457 1455 1454 1453 1453 1452 1451 1450 1450 1449 1448 1448 1447 1445 1443 1440 1437 1435 1433 1429 1426 1419 1416 1416 1415 1413